Location: Campo Claro
(10.4907°N, 66.8285°W)
Time: 06:42:51
(UTC+00:00)

Cosmos 1553 Rocket - Pass Details

Date: 08 July 2022
Orbit: 941 x 1008 km, 82.9° (Epoch: 12 August)

Event Time Altitude Azimuth Distance (km) Brightness Sun altitude
Rises 09:43:19 0° 30° (NNE) 3,657 8.0 -7.1°
Reaches altitude 10° 09:47:27 10° 56° (NE) 2,694 8.1 -6.2°
Maximum altitude 09:50:08 13° 83° (E) 2,466 7.6 -5.6°
Drops below altitude 10° 09:52:49 10° 109° (ESE) 2,676 7.1 -5.0°
Sets 09:56:52 0° 135° (SE) 3,610 7.3 -4.1°
